[[{"header":{"parameterUnit":"m.s-1","parameterCategory":1,"la1":30.2991,"la2":30.254,"lo1":-89.0895,"lo2":-89.0444,"dx":0.0017,"dy":0.0017,"nx":28,"ny":28,"refTime":"2023-01-21T15:00:00:Z","depth":0,"parameterNumber":2,"parameterNumberName":"U-component_of_WINDS"},"data":[0,0,0,0,0,0,0,0,0,0,0,0,0,0,0,0,0,0,0,0,0,0,0,0,0,0,0,0,0,0,0,0,0,0,0,0,0,0,0,0,0,0,0,0,0,0,0,0,0,0,0,0,0,0,0,0,0,0,4.1462,4.1463,0,4.1573,4.1574,4.1575,4.1535,4.1532,4.153,4.1528,4.1642,4.1647,4.1652,0,0,0,0,0,0,0,0,0,0,0,0,0,4.1218,4.1223,4.1462,4.1463,4.1465,4.1573,4.1574,4.1576,4.1535,4.1532,4.1529,4.1527,4.164,4.1646,4.1653,0,0,0,0,0,0,0,0,0,0,0,0,0,4.1326,4.1225,4.1462,4.1458,4.1458,4.1572,4.1574,4.1576,4.1536,4.1532,4.1529,4.1525,4.1638,4.1646,4.1654,4.1778,0,0,4.1678,4.1682,0,0,0,0,0,0,0,0,4.132,4.1335,4.1457,4.1458,4.1459,4.1536,4.153,4.1644,4.1537,4.1507,4.1528,4.1523,4.161,4.162,4.1649,4.1783,4.1788,4.1679,4.1684,4.1687,4.1689,0,0,0,0,0,0,0,4.1313,4.133,4.1506,4.1459,4.146,4.1451,4.1462,4.1551,4.1578,4.1509,4.1506,4.152,4.161,4.1641,4.1651,4.179,4.1679,4.1686,4.1691,4.1694,4.2036,4.204,0,0,0,0,0,0,4.1305,4.1324,4.1502,4.1509,4.1379,4.1459,4.1471,4.1515,4.1577,4.1582,4.1523,4.1518,4.1629,4.1642,4.1655,4.1808,4.1687,4.1695,4.1699,4.2032,4.2037,4.2042,0,0,0,0,0,0,4.1299,4.1321,4.1498,4.1416,4.1438,4.1467,4.1517,4.152,4.1551,4.1587,4.1592,4.155,4.1627,4.1644,4.1749,4.1811,4.1698,4.1706,4.2027,4.2034,4.204,4.2112,0,0,0,0,0,0,4.1293,4.1319,4.1366,4.1417,4.1442,4.1589,4.1521,4.1524,4.1565,4.1559,4.1614,4.162,4.1625,4.1737,4.1757,4.182,4.1712,4.2022,4.203,4.2038,4.2104,4.212,4.2134,0,0,0,0,0,4.1284,4.1381,4.1369,4.139,4.1502,4.1593,4.1607,4.1611,4.157,4.1618,4.1642,4.1618,4.1801,4.1748,4.177,4.1836,4.2018,4.2028,4.2037,4.2097,4.2117,4.2133,0,0,0,0,0,0,4.1336,4.1388,4.1374,4.1491,4.1538,4.1586,4.1646,4.1631,4.169,4.1682,4.1685,4.1698,4.1807,4.1832,4.1772,4.1962,4.1903,4.1918,4.1942,4.196,4.1975,4.1967,4.1719,0,0,0,0,0,4.1361,4.143,4.1472,4.1571,4.1595,4.1617,4.1657,4.1656,4.1705,4.1724,4.1755,4.1804,4.1873,4.1918,4.1982,4.2107,4.212,4.2164,4.2179,4.2191,4.2204,4.2275,4.2296,4.2074,4.2073,4.2073,0,0,4.1413,4.145,4.1493,4.1582,4.1618,4.1691,4.1634,4.1712,4.1767,4.1736,4.1838,4.1863,4.1917,4.2034,4.2086,4.2058,4.2268,4.2203,4.2212,4.2219,4.2287,4.2308,4.2327,4.208,4.2079,4.2078,0,0,4.1546,4.158,4.1668,4.1706,4.1762,4.1776,4.1797,4.1848,4.1864,4.1966,4.1946,4.2011,4.2128,4.2169,4.2205,4.2357,4.2338,4.2378,4.2455,4.2524,4.2542,4.2558,4.2614,4.2634,4.239,4.239,4.2391,0,4.1604,4.1712,4.1715,4.1796,4.1837,4.1813,4.1903,4.194,4.2014,4.2044,4.2011,4.216,4.2194,4.2322,4.2359,4.2388,4.2414,4.2372,4.2539,4.2555,4.2569,4.2623,4.2644,4.2395,4.2395,4.2394,4.2394,0,4.1783,4.1858,4.1922,4.1996,4.2044,4.2129,4.2146,4.2194,4.219,4.2208,4.2314,4.2356,4.243,4.246,4.2456,4.2588,4.2569,4.2537,4.2479,4.2595,4.2646,4.2667,4.2402,4.24,4.2399,4.2397,0,0,4.195,4.2026,4.205,4.2084,4.2145,4.2204,4.2289,4.2363,4.2405,4.2458,4.2531,4.2632,4.2605,4.2646,4.2647,4.2707,4.2829,4.2669,4.2671,4.2699,4.2979,4.3004,4.3027,4.2816,4.282,4.2823,4.2976,0,4.209,4.2239,4.2245,4.2382,4.2454,4.2434,4.2508,4.2555,4.2575,4.2639,4.2661,4.2734,4.2691,4.2716,4.2775,4.2801,4.2885,4.279,4.2886,4.2889,4.2874,4.3054,4.3079,4.3221,4.2995,4.2999,4.3001,0,4.2272,4.2332,4.2477,4.2531,4.2561,4.2628,4.2697,4.2758,4.2811,4.2822,4.2869,4.2862,4.2951,4.2889,4.3013,4.2949,4.2988,4.3007,4.3013,4.3023,4.2953,4.3071,4.3266,4.3288,4.3032,4.3029,4.3027,0,4.2383,4.25,4.2602,4.2632,4.2696,4.2745,4.2774,4.2823,4.2868,4.2928,4.2958,4.3028,4.3067,4.3122,4.3135,4.3088,4.326,4.3198,4.3273,4.3273,4.3311,4.3309,4.3517,4.3334,4.3334,4.3333,4.3333,0,4.254,4.2629,4.2653,4.2716,4.2817,4.2824,4.2924,4.2949,4.2994,4.3063,4.305,4.3115,4.3127,4.3195,4.3206,4.3309,4.3326,4.3338,4.334,4.334,4.3339,4.3367,4.3358,4.3339,4.3338,4.3336,4.3335,0,4.2681,4.27,4.2811,4.2864,4.2879,4.2951,4.2997,4.3059,4.3078,4.3165,4.3186,4.3217,4.3297,4.3315,4.3409,4.3417,4.354,4.3531,4.3522,4.3522,4.3596,4.359,4.3831,4.3865,4.3658,4.366,4.3662,0,4.278,4.2849,4.291,4.2955,4.2987,4.306,4.3106,4.3116,4.3165,4.3232,4.3286,4.3365,4.3428,4.3557,4.3588,4.3662,4.3656,4.3736,4.3667,4.3666,4.366,4.3657,4.3665,4.3749,4.3751,4.3753,4.3755,0,4.2955,4.2962,4.3028,4.31,4.3155,4.3212,4.3265,4.3303,4.3321,4.3377,4.3459,4.3508,4.3606,4.3685,4.3759,4.379,4.3777,4.3776,4.3798,4.3799,4.3792,4.38,4.356,4.3771,4.3769,4.3768,4.3767,4.3766,4.308,4.3142,4.3195,4.327,4.3312,4.3363,4.3425,4.3452,4.352,4.3601,4.3603,4.3693,4.3747,4.3845,4.3881,4.3953,4.3928,4.3959,4.3967,4.3975,4.3983,4.378,4.3966,4.3966,4.3965,4.3965,4.3965,0,4.3256,4.329,4.336,4.3436,4.3496,4.3478,4.3537,4.3589,4.3668,4.372,4.3783,4.3879,4.3957,4.3995,4.4072,4.4122,4.4118,4.4142,4.4139,4.4147,4.3999,4.3974,4.4144,4.4144,4.4144,4.4144,4.4144,4.4144,4.3355,4.3459,4.3473,4.3598,4.3631,4.372,4.3756,4.3804,4.3845,4.3953,4.4017,4.4041,4.4089,4.4169,4.424,4.425,4.428,4.4308,4.4314,4.4175,4.4157,4.414,4.4116,4.4314,4.4314,4.4456,4.4458,4.4459]},{"header":{"parameterUnit":"m.s-1","parameterCategory":1,"la1":30.2991,"la2":30.254,"lo1":-89.0895,"lo2":-89.0444,"dx":0.0017,"dy":0.0017,"nx":28,"ny":28,"refTime":"2023-01-21T15:00:00:Z","depth":0,"parameterNumber":3,"parameterNumberName":"V-component_of_WINDS"},"data":[0,0,0,0,0,0,0,0,0,0,0,0,0,0,0,0,0,0,0,0,0,0,0,0,0,0,0,0,0,0,0,0,0,0,0,0,0,0,0,0,0,0,0,0,0,0,0,0,0,0,0,0,0,0,0,0,0,0,-2.9295,-2.9296,0,-2.9394,-2.9396,-2.9397,-2.94,-2.9399,-2.9397,-2.9396,-2.9496,-2.95,-2.9504,0,0,0,0,0,0,0,0,0,0,0,0,0,-2.9108,-2.9112,-2.9295,-2.9297,-2.9298,-2.9394,-2.9396,-2.9397,-2.94,-2.9399,-2.9397,-2.9396,-2.9495,-2.9499,-2.9504,0,0,0,0,0,0,0,0,0,0,0,0,0,-2.9197,-2.9113,-2.9295,-2.9311,-2.9313,-2.9394,-2.9396,-2.9397,-2.94,-2.9399,-2.9397,-2.9395,-2.9494,-2.9499,-2.9505,-2.9576,0,0,-2.9522,-2.9524,0,0,0,0,0,0,0,0,-2.9192,-2.9203,-2.9307,-2.931,-2.9313,-2.9383,-2.9366,-2.9457,-2.9401,-2.9367,-2.9396,-2.9394,-2.946,-2.9468,-2.9491,-2.958,-2.9585,-2.9522,-2.9526,-2.9528,-2.953,0,0,0,0,0,0,0,-2.9185,-2.9199,-2.9334,-2.9309,-2.9312,-2.9313,-2.9324,-2.9384,-2.9422,-2.937,-2.9371,-2.9382,-2.9461,-2.9485,-2.9493,-2.9586,-2.9522,-2.9527,-2.9531,-2.9533,-2.974,-2.9742,0,0,0,0,0,0,-2.9176,-2.9194,-2.9331,-2.9337,-2.9247,-2.9318,-2.933,-2.9362,-2.9422,-2.9429,-2.9384,-2.9382,-2.9476,-2.9486,-2.9497,-2.9584,-2.9528,-2.9534,-2.9537,-2.9738,-2.974,-2.9743,0,0,0,0,0,0,-2.9172,-2.9189,-2.9327,-2.9266,-2.9284,-2.9323,-2.936,-2.9365,-2.9389,-2.9432,-2.9439,-2.9401,-2.9475,-2.9489,-2.9556,-2.9588,-2.9536,-2.9541,-2.9735,-2.9738,-2.9741,-2.9759,0,0,0,0,0,0,-2.9167,-2.9187,-2.9214,-2.9267,-2.9287,-2.9385,-2.9361,-2.9368,-2.9399,-2.9398,-2.945,-2.9457,-2.9475,-2.9548,-2.9562,-2.9594,-2.9546,-2.9733,-2.9737,-2.974,-2.9756,-2.9762,-2.9768,0,0,0,0,0,-2.916,-2.9215,-2.9216,-2.9232,-2.9322,-2.9387,-2.9399,-2.9418,-2.9402,-2.943,-2.9457,-2.9456,-2.9582,-2.9555,-2.9571,-2.9605,-2.9731,-2.9736,-2.974,-2.9753,-2.9761,-2.9768,0,0,0,0,0,0,-2.9164,-2.9222,-2.9223,-2.9297,-2.9337,-2.9388,-2.9423,-2.9426,-2.9472,-2.9469,-2.9491,-2.9502,-2.957,-2.9594,-2.9563,-2.9678,-2.9654,-2.9662,-2.9659,-2.9667,-2.9673,-2.9665,-2.955,0,0,0,0,0,-2.9174,-2.9223,-2.927,-2.933,-2.9351,-2.9384,-2.9413,-2.9424,-2.9467,-2.9484,-2.9516,-2.9557,-2.9606,-2.9638,-2.9685,-2.976,-2.9771,-2.9792,-2.9798,-2.9803,-2.9809,-2.9851,-2.986,-2.9758,-2.9758,-2.9758,0,0,-2.9194,-2.9232,-2.9261,-2.9332,-2.9365,-2.9414,-2.9398,-2.9451,-2.9488,-2.9492,-2.9558,-2.9583,-2.963,-2.9702,-2.9735,-2.9725,-2.984,-2.9809,-2.9812,-2.9816,-2.9857,-2.9866,-2.9875,-2.9761,-2.9761,-2.976,0,0,-2.9256,-2.9289,-2.9343,-2.9377,-2.9427,-2.9449,-2.9462,-2.9512,-2.953,-2.9597,-2.9601,-2.9645,-2.9729,-2.9763,-2.9791,-2.9867,-2.9867,-2.9882,-2.9913,-2.9954,-2.9962,-2.9969,-2.9996,-3.0006,-2.9889,-2.9889,-2.9889,0,-2.9274,-2.9349,-2.937,-2.9424,-2.9455,-2.9462,-2.9517,-2.9549,-2.9611,-2.9633,-2.9621,-2.9727,-2.9759,-2.9839,-2.9858,-2.988,-2.9896,-2.9876,-2.9959,-2.9967,-2.9974,-3.0,-3.001,-2.989,-2.989,-2.989,-2.989,0,-2.937,-2.9422,-2.946,-2.9521,-2.9557,-2.9611,-2.964,-2.9674,-2.9683,-2.9706,-2.9774,-2.9814,-2.9869,-2.9889,-2.9898,-2.9971,-2.9963,-2.9955,-2.9932,-2.9985,-3.001,-3.002,-2.9892,-2.9892,-2.9891,-2.9891,0,0,-2.9436,-2.9509,-2.9523,-2.9551,-2.9608,-2.9648,-2.9703,-2.9758,-2.9787,-2.983,-2.9876,-2.9948,-2.9941,-2.9973,-2.9986,-3.0022,-3.008,-3.001,-3.0011,-3.0021,-3.0163,-3.0168,-3.0179,-3.0081,-3.0083,-3.0085,-3.0159,0,-2.9504,-2.9601,-2.9622,-2.9706,-2.9755,-2.9763,-2.9811,-2.985,-2.9874,-2.9919,-2.9944,-2.9995,-2.9982,-3.0002,-3.0037,-3.0065,-3.0109,-3.006,-3.0124,-3.0126,-3.0111,-3.0192,-3.0198,-3.0266,-3.0168,-3.017,-3.0171,0,-2.9595,-2.9642,-2.9731,-2.9782,-2.9803,-2.9846,-2.9899,-2.9941,-2.9987,-3.0002,-3.0038,-3.0048,-3.0105,-3.008,-3.0159,-3.0126,-3.0153,-3.0171,-3.0174,-3.018,-3.0151,-3.02,-3.0288,-3.0298,-3.0187,-3.0186,-3.0185,0,-2.9634,-2.972,-2.9784,-2.9808,-2.9869,-2.9899,-2.9926,-2.997,-3.0002,-3.0048,-3.007,-3.0122,-3.015,-3.019,-3.0214,-3.0193,-3.0291,-3.0268,-3.0305,-3.0304,-3.0324,-3.0322,-3.0417,-3.0342,-3.0342,-3.0342,-3.0342,0,-2.9708,-2.9762,-2.9803,-2.9842,-2.9903,-2.9927,-2.9987,-3.0014,-3.0053,-3.0098,-3.0108,-3.015,-3.0179,-3.0225,-3.0244,-3.0306,-3.0319,-3.0332,-3.0337,-3.0331,-3.033,-3.0349,-3.0345,-3.0345,-3.0344,-3.0344,-3.0343,0,-2.9761,-2.9791,-2.9862,-2.9914,-2.9929,-2.9972,-3.0017,-3.0056,-3.008,-3.0137,-3.0151,-3.0189,-3.0244,-3.0272,-3.034,-3.0352,-3.0423,-3.0424,-3.0408,-3.0409,-3.0444,-3.044,-3.0554,-3.057,-3.0485,-3.0486,-3.0487,0,-2.9806,-2.9848,-2.9905,-2.9937,-2.9964,-3.0014,-3.0048,-3.0073,-3.0108,-3.0164,-3.0196,-3.0251,-3.0297,-3.0384,-3.0417,-3.047,-3.0472,-3.0509,-3.048,-3.0474,-3.0473,-3.047,-3.0474,-3.0513,-3.0514,-3.0515,-3.0515,0,-2.9882,-2.9895,-2.9942,-2.9996,-3.0036,-3.0079,-3.0122,-3.0147,-3.0179,-3.0217,-3.0274,-3.0309,-3.038,-3.0434,-3.0489,-3.0517,-3.0522,-3.0524,-3.0535,-3.053,-3.0518,-3.0525,-3.0421,-3.0521,-3.0521,-3.052,-3.052,-3.052,-2.9932,-2.997,-3.0017,-3.007,-3.0105,-3.0145,-3.0184,-3.0214,-3.0262,-3.0322,-3.0334,-3.0394,-3.0439,-3.0514,-3.0543,-3.059,-3.0582,-3.0598,-3.0602,-3.0606,-3.0608,-3.0512,-3.06,-3.06,-3.06,-3.06,-3.06,0,-3.0008,-3.0039,-3.0088,-3.0148,-3.019,-3.0192,-3.024,-3.0275,-3.0327,-3.037,-3.0415,-3.048,-3.0534,-3.0572,-3.0627,-3.0657,-3.0661,-3.0671,-3.0668,-3.0675,-3.0612,-3.0596,-3.0667,-3.0667,-3.0667,-3.0667,-3.0667,-3.0667,-3.0053,-3.0117,-3.0136,-3.0218,-3.0249,-3.0308,-3.0335,-3.0372,-3.0406,-3.0479,-3.0524,-3.0549,-3.059,-3.0648,-3.0697,-3.0707,-3.0726,-3.0736,-3.0746,-3.0686,-3.0679,-3.0672,-3.0658,-3.074,-3.074,-3.0805,-3.0806,-3.0806]}]]